sat.trackr.live / text

‹ back to catalog

STARLINK-37643

NORAD 69449 · 2026-127G

PAYLOAD ACTIVE UNKNOWN

§ Identity

Operator
Country
US
Launch date
2026-06-08
Launch site
AFETR
Launch vehicle
Mass (kg)
RCS (m²)

Purposes: comms

External: N2YO · Heavens-Above · Gunter

§ Orbital elements

Epoch: 2026-09-20T02:46:19.155936Z

Period
93.85 min
Inclination
53.1567°
Eccentricity
0.0000863
Mean motion
15.34405391 rev/d
Perigee alt
462.1 km
Apogee alt
463.3 km
Semi-major
6,840.8 km
B*
4.6603e-4
RAAN
167.4808°
Arg perigee
73.3788°
Mean anomaly
286.7310°
Rev number
1,613

§ Raw data

STARLINK-376431 69449U 26127G   26263.11549949  .00015404  00000+0  46603-3 0  99962 69449  53.1567 167.4808 0000863  73.3788 286.7310 15.34405391 16131

JSON: /api/v1/satellites/69449 · /tle

For live sub-satellite position, see the globe view (requires WebGL).

§ Visibility from observer

Set your observer location to see the next 7 days of passes ≥ 10°. The values pass through the URL so the page stays shareable.

No JS? Fill the form by hand. The geolocation button needs JavaScript.